This is the latest recevied weather packets stored in our database for station/object HS3PIK-2. If no packets are shown the sender has not sent any weather packets the latest 10 day(s).
| Time | Temp. | Humidity | Pressure | Rain* | Wind** | Luminosity | Snow |
|---|---|---|---|---|---|---|---|
| 1778217835 | 33.89° C | 64% | - | - | - | 0 W/m² | - |
| 1778217503 | 35° C | 61% | - | - | - | 0 W/m² | - |
| 1778217178 | 35.56° C | 59% | - | - | - | 0 W/m² | - |
| 1778216850 | 35.56° C | 61% | - | - | - | 0 W/m² | - |
| 1778216523 | 35.56° C | 60% | - | - | - | 0 W/m² | - |
| 1778216193 | 35.56° C | 62% | - | - | - | 0 W/m² | - |
| 1778216084 | 35.56° C | 62% | - | - | - | 0 W/m² | - |
| 1778215757 | 34.44° C | 62% | - | - | - | 0 W/m² | - |
| 1778215424 | 35° C | 62% | - | - | - | 0 W/m² | - |
| 1778215096 | 34.44° C | 61% | - | - | - | 0 W/m² | - |
| 1778214769 | 35° C | 62% | - | - | - | 0 W/m² | - |
| 1778214444 | 35° C | 60% | - | - | - | 0 W/m² | - |
| 1778214117 | 35° C | 61% | - | - | - | 0 W/m² | - |
| 1778213792 | 33.89° C | 62% | - | - | - | 0 W/m² | - |
| 1778213464 | 34.44° C | 63% | - | - | - | 0 W/m² | - |
| 1778213142 | 33.89° C | 62% | - | - | - | 0 W/m² | - |
| 1778212815 | 33.33° C | 63% | - | - | - | 0 W/m² | - |
| 1778212490 | 33.33° C | 61% | - | - | - | 0 W/m² | - |
| 1778212165 | 33.33° C | 61% | - | - | - | 0 W/m² | - |
| 1778211837 | 33.33° C | 63% | - | - | - | 0 W/m² | - |
| 1778211505 | 33.33° C | 62% | - | - | - | 0 W/m² | - |
| 1778211177 | 32.78° C | 64% | - | - | - | 0 W/m² | - |
| 1778210842 | 32.78° C | 63% | - | - | - | 0 W/m² | - |
| 1778210510 | 32.78° C | 63% | - | - | - | 0 W/m² | - |
| 1778210180 | 32.78° C | 65% | - | - | - | 0 W/m² | - |
* Rain since midnight (hover to see other rain measurements)
** Current wind speed in m/s (hover to see current wind gust speed)